UAL1067 KEWR-KDFW

Flight info

Callsign UAL1067
Flight time N/A
Altitude 24000
Route PARKE J6 HVQ Q68 LAJUG/N0440F260 Q68 LITTR FEWWW BRDJE5
Aircraft A321/M-SDE3FGHIRWY/LB1

Departure

Time 2026-05-01 15:23
Airport Newark Liberty International Airport (KEWR)

Arrival

Time N/A
Airport Dallas Fort Worth International Airport (KDFW)
Time Latitude Longitude Altitude Speed Heading
2026-05-01 14:59 40.69934 -74.17871 25 ft 0 kts 203°
2026-05-01 15:15 40.69938 -74.17869 24 ft 4 kts 203°
2026-05-01 15:15 40.69990 -74.17866 25 ft 4 kts 106°
2026-05-01 15:16 40.69992 -74.17873 25 ft 0 kts 95°
2026-05-01 15:19 40.69992 -74.17868 25 ft 3 kts 95°
2026-05-01 15:19 40.69986 -74.17791 23 ft 14 kts 95°
2026-05-01 15:20 40.70075 -74.17667 22 ft 12 kts
2026-05-01 15:20 40.70139 -74.17609 22 ft 12 kts 83°
2026-05-01 15:20 40.70132 -74.17481 22 ft 18 kts 95°
2026-05-01 15:21 40.70118 -74.17281 22 ft 25 kts 95°
2026-05-01 15:21 40.70104 -74.17045 22 ft 25 kts 94°
2026-05-01 15:21 40.70089 -74.16814 22 ft 25 kts 95°
2026-05-01 15:21 40.70075 -74.16587 21 ft 25 kts 95°
2026-05-01 15:22 40.70015 -74.16382 19 ft 12 kts 173°
2026-05-01 15:22 40.69941 -74.16419 19 ft 12 kts 206°
2026-05-01 15:22 40.69846 -74.16479 20 ft 26 kts 206°
2026-05-01 15:23 40.69431 -74.16743 23 ft 104 kts 206°
2026-05-01 15:23 40.68582 -74.17282 25 ft 165 kts 205°
2026-05-01 15:23 40.67461 -74.17994 510 ft 180 kts 208°
2026-05-01 15:23 40.66309 -74.18724 1432 ft 182 kts 208°
2026-05-01 15:24 40.65284 -74.19736 2090 ft 191 kts 234°
2026-05-01 15:24 40.64861 -74.21374 2321 ft 201 kts 273°
2026-05-01 15:24 40.65020 -74.23260 2564 ft 216 kts 277°
2026-05-01 15:24 40.65156 -74.25344 2638 ft 243 kts 274°
2026-05-01 15:25 40.65244 -74.27635 3041 ft 254 kts 273°
2026-05-01 15:25 40.65326 -74.29977 3661 ft 256 kts 274°
2026-05-01 15:25 40.65414 -74.32321 4385 ft 256 kts 275°
2026-05-01 15:25 40.65506 -74.34662 5084 ft 256 kts 275°